TURKSAT 5A

Last updated on Mon Oct 14 2024 00:02:41 GMT+0000 (Coordinated Universal Time)

1 47306U 21001A 24287.26926628 .00000153 00000+0 00000+0 0 9995 2 47306 0.0245 104.4034 0000187 329.9715 75.8338 1.00271911 13854
UTC large
Height (km)
Speed (km/s)
/
Latitude / Longitude
Inclination (degrees)
Orbital Period (minutes)
Azimuth
Elevation
Range (km)
Doppler Factor

Next 0 passes for location: London (51.5072 / 0.1276)

Sorry there are no passes over London.